Weather History for Bluefield, WV

Change the Weather History Date:

Monday, December 31, 2012

  Actual Average Record
Temperature  
Mean Temperature 31 °F 34 °F  
Max Temperature 41 °F 42 °F 72 °F (1972)
Min Temperature 21 °F 27 °F 3 °F (1983)
Degree Days  
Heating Degree Days 34 30  
Month to date heating degree days 688 860  
Since 1 July heating degree days 1760 1765  
Cooling Degree Days 0 0  
Month to date cooling degree days 0 0  
Year to date cooling degree days 1007 853  
Moisture  
Dew Point 14 °F    
Average Humidity 53    
Maximum Humidity 77    
Minimum Humidity 28    
Precipitation  
Precipitation 0.00 in 0.09 in 1.53 in (1975)
Month to date precipitation 3.17 2.91  
Year to date precipitation 43.55 39.63  
Snow  
Snow 0.00 in - - ()
Month to date snowfall 7.3  
Since 1 July snowfall 16.9  
Snow Depth T in    
Sea Level Pressure  
Sea Level Pressure 30.23 in    
Wind  
Wind Speed 9 mph (WSW)    
Max Wind Speed 17 mph    
Max Gust Speed 24 mph    
Visibility 10 miles    
Events      
T = Trace of Precipitation, MM = Missing Value Source: NWS Daily Summary

Daily Weather History Graph

Daily Weather History Graph

Search for Another Location

Airport:

Trip Planner

Search our weather history database for the weather conditions in past years. The results will help you decide how hot, cold, wet, or windy it might be!

Date:

Astronomy

Dec. 31, 2012 Rise Set
Actual Time 7:38 AM EST 5:17 PM EST
Civil Twilight 7:09 AM EST 5:46 PM EST
Nautical Twilight 6:37 AM EST 6:19 PM EST
Astronomical Twilight 6:05 AM EST 6:50 PM EST
Moon 8:41 PM EST (12/31) 9:23 AM EST (12/31)
Length of Visible Light 10h 36m
Length of Day
9h 38m
Waning Gibbous, 90% of the Moon is Illuminated
Dec 31
Waning Gibbous
Jan 4
Last Quarter
Jan 11
New
Jan 18
First Quarter
Jan 26
Full

Hourly Weather History & Observations

Time (EST) Temp. Windchill Dew Point Humidity Pressure Visibility Wind Dir Wind Speed Gust Speed Precip Events Conditions
12:52 AM 21.9 °F 13.4 °F 15.1 °F 75% 30.37 in 10.0 mi West 6.9 mph - N/A   Clear
1:52 AM 21.9 °F 13.4 °F 16.0 °F 78% 30.36 in 10.0 mi West 6.9 mph - N/A   Clear
2:52 AM 21.9 °F 14.5 °F 15.1 °F 75% 30.35 in 10.0 mi WSW 5.8 mph - N/A   Clear
3:52 AM 24.1 °F 16.0 °F 15.1 °F 69% 30.34 in 10.0 mi West 6.9 mph - N/A   Clear
4:52 AM 26.1 °F 18.4 °F 14.0 °F 60% 30.31 in 10.0 mi West 6.9 mph - N/A   Clear
5:52 AM 26.1 °F 20.5 °F 14.0 °F 60% 30.31 in 10.0 mi WSW 4.6 mph - N/A   Clear
6:52 AM 28.9 °F 22.8 °F 12.0 °F 49% 30.31 in 10.0 mi WSW 5.8 mph - N/A   Clear
7:52 AM 28.0 °F 21.7 °F 10.0 °F 47% 30.31 in 10.0 mi West 5.8 mph - N/A   Clear
8:52 AM 30.0 °F 22.4 °F 10.0 °F 43% 30.31 in 10.0 mi WSW 8.1 mph - N/A   Clear
9:52 AM 34.0 °F 27.2 °F 12.0 °F 40% 30.29 in 10.0 mi WSW 8.1 mph - N/A   Partly Cloudy
10:52 AM 36.0 °F 29.6 °F 16.0 °F 44% 30.30 in 10.0 mi WSW 8.1 mph - N/A   Mostly Cloudy
11:52 AM 37.0 °F 32.4 °F 16.0 °F 42% 30.25 in 10.0 mi WSW 5.8 mph - N/A   Overcast
12:52 PM 39.9 °F 34.5 °F 12.9 °F 33% 30.22 in 10.0 mi West 8.1 mph - N/A   Partly Cloudy
1:52 PM 41.0 °F 37.1 °F 10.9 °F 29% 30.18 in 10.0 mi West 5.8 mph - N/A   Mostly Cloudy
2:52 PM 39.9 °F 33.4 °F 15.1 °F 36% 30.18 in 10.0 mi WSW 10.4 mph - N/A   Mostly Cloudy
3:52 PM 39.0 °F 31.4 °F 14.0 °F 36% 30.16 in 10.0 mi WSW 12.7 mph - N/A   Overcast
4:52 PM 39.0 °F 33.4 °F 14.0 °F 36% 30.16 in 10.0 mi WSW 8.1 mph - N/A   Overcast
5:52 PM 39.0 °F 31.8 °F 12.9 °F 34% 30.16 in 10.0 mi West 11.5 mph - N/A   Overcast
6:52 PM 39.0 °F 30.3 °F 18.0 °F 43% 30.14 in 10.0 mi West 16.1 mph 21.9 mph N/A   Overcast
7:52 PM 37.9 °F 30.0 °F 16.0 °F 41% 30.13 in 10.0 mi West 12.7 mph - N/A   Overcast
8:52 PM 37.0 °F 29.8 °F 12.0 °F 36% 30.11 in 10.0 mi West 10.4 mph - N/A   Overcast
9:52 PM 37.9 °F 30.0 °F 10.9 °F 33% 30.09 in 10.0 mi West 12.7 mph - N/A   Mostly Cloudy
10:52 PM 37.0 °F 31.0 °F 14.0 °F 39% 30.09 in 10.0 mi WSW 8.1 mph - N/A   Overcast
11:52 PM 37.0 °F 31.0 °F 12.9 °F 37% 30.09 in 10.0 mi West 8.1 mph - N/A   Mostly Cloudy